Kansas Department of Transportation
RWIS(Road and Runway Information System) Map and Weather Data





Station
Surface
Air
Wind
Site IDSensor TypeLocationTemperature (°F)Temperature (°F)Humidity (%)Speed (mi/h)Gusts (mi/h)DirectionTime
123002AtmosphericBonner Springs 77648 SSEOct 22 2020 6:25PM
123002ApproachBonner Springs70     Oct 22 2020 6:25PM
123002DeckBonner Springs72     Oct 22 2020 6:25PM
123014AtmosphericBull Creek 8158714SWOct 22 2020 6:25PM
123014DeckBull Creek82     Oct 22 2020 6:25PM
123014DepartureBull Creek79     Oct 22 2020 6:25PM
123015AtmosphericLeavenworth 8155714SSWOct 22 2020 6:25PM
123015DeckLeavenworth75     Oct 22 2020 6:25PM
123015DepartureLeavenworth75     Oct 22 2020 6:25PM
123020AtmosphericMayetta 81911117NOct 22 2020 6:25PM
123020DeckMayettaUnavailable     Oct 22 2020 6:25PM
123020RoadwayMayettaUnavailable     Oct 22 2020 6:25PM
505000AtmosphericKTA 1 82900NOct 22 2020 6:20PM
505000ApproachKTA 186     Oct 22 2020 6:20PM
505000DeckKTA 186     Oct 22 2020 6:20PM
505001AtmosphericKTA 2 8243610SSWOct 22 2020 6:20PM
505001ApproachKTA 286     Oct 22 2020 6:20PM
505001DeckKTA 284     Oct 22 2020 6:20PM
505002AtmosphericKTA 3 815425WSWOct 22 2020 6:20PM
505002ApproachKTA 384     Oct 22 2020 6:20PM
505002DeckKTA 386     Oct 22 2020 6:20PM
505003AtmosphericKTA 4 793959NOct 22 2020 6:20PM
505003ApproachKTA 4Unavailable     Oct 22 2020 6:20PM
505003DeckKTA 4Unavailable     Oct 22 2020 6:20PM
505004AtmosphericKTA 5 8199713ESEOct 22 2020 6:20PM
505004RoadwayKTA 582     Oct 22 2020 6:20PM
505004RoadwayKTA 582     Oct 22 2020 6:20PM
505005AtmosphericKTA 6 8140713SOct 22 2020 6:20PM
505005Approach KTA 682     Oct 22 2020 6:20PM
505005DeckKTA 682     Oct 22 2020 6:20PM
505006AtmosphericKTA 7 8254610SOct 22 2020 6:20PM
505006ApproachKTA 781     Oct 22 2020 6:20PM
505006DeckKTA 782     Oct 22 2020 6:20PM
505007AtmosphericKTA 8 7954613SSWOct 22 2020 6:20PM
505007ApproachKTA 879     Oct 22 2020 6:20PM
505007DeckKTA 879     Oct 22 2020 6:20PM
505008AtmosphericKTA 9 8153611EOct 22 2020 6:20PM
505008ApproachKTA 979     Oct 22 2020 6:20PM
505008DeckKTA 981     Oct 22 2020 6:20PM
505009AtmosphericKTA 10 845327SOct 22 2020 6:20PM
505009ApproachKTA 1081     Oct 22 2020 6:20PM
505009DeckKTA 1084     Oct 22 2020 6:20PM
505010AtmosphericWebb 8240712SSEOct 22 2020 6:25PM
505010DeckWebb86     Oct 22 2020 6:25PM
505010NullWebb82     Oct 22 2020 6:25PM
505014AtmosphericI-135 8245816SSWOct 22 2020 6:20PM
505014ApproachI-13586     Oct 22 2020 6:20PM
505014DeckI-13586     Oct 22 2020 6:20PM
540000AtmosphericBlue Rapids 6385612NOct 22 2020 6:25PM
540000DeckBlue Rapids57     Oct 22 2020 6:25PM
540000DepartureBlue RapidsUnavailable     Oct 22 2020 6:25PM
540001AtmosphericSabetha 5085613NOct 22 2020 6:25PM
540001ApproachSabethaUnavailable     Oct 22 2020 6:25PM
540001DeckSabethaUnavailable     Oct 22 2020 6:25PM
540002AtmosphericWestgate 8247611NWOct 22 2020 6:25PM
540002DeckWestgate79     Oct 22 2020 6:25PM
540002DepartureWestgateUnavailable     Oct 22 2020 6:25PM
540003AtmosphericEmporia 82501115SWOct 22 2020 6:25PM
540003ApproachEmporia81     Oct 22 2020 6:25PM
540003DeckEmporia84     Oct 22 2020 6:25PM
540007AtmosphericManhattan 7380712NOct 22 2020 6:25PM
540007DepartureManhattan66     Oct 22 2020 6:25PM
540007DeckManhattan64     Oct 22 2020 6:25PM
541000AtmosphericElkhart 54631519NOct 22 2020 6:20PM
541000ApproachElkhart70     Oct 22 2020 6:20PM
541000DeckElkhart66     Oct 22 2020 6:20PM
541003AtmosphericFord 66731116NOct 22 2020 6:25PM
541003DeckFordUnavailable     Oct 22 2020 6:25PM
541003DepartureFord64     Oct 22 2020 6:25PM
541004AtmosphericScott 46921625ESEOct 22 2020 6:25PM
541004DepartureScott54     Oct 22 2020 6:25PM
541005AtmosphericNess 48701221NOct 22 2020 6:25PM
541005DeckNess57     Oct 22 2020 6:25PM
541005DepartureNess59     Oct 22 2020 6:25PM
541007AtmosphericGarden City 615214 NOct 22 2020 6:25PM
541007ApproachGarden City      Oct 22 2020 6:25PM
541007DeckGarden City61     Oct 22 2020 6:25PM
543000AtmosphericJunction City 7384410NNEOct 22 2020 6:25PM
543000ApproachJunction City63     Oct 22 2020 6:25PM
543000DeckJunction City64     Oct 22 2020 6:25PM
543001AtmosphericEllsworth 63831421NOct 22 2020 6:25PM
543001RoadwayEllsworth55     Oct 22 2020 6:25PM
543002AtmosphericMcPherson 70791319NOct 22 2020 6:25PM
543002ApproachMcPherson63     Oct 22 2020 6:25PM
543002DeckMcPherson64     Oct 22 2020 6:25PM
543003AtmosphericSalina 73641216SEOct 22 2020 6:25PM
543003DepartureSalina61     Oct 22 2020 6:25PM
543003RoadwaySalina61     Oct 22 2020 6:25PM
543004AtmosphericConcordia 64851522NNWOct 22 2020 6:25PM
543004ApproachConcordia50     Oct 22 2020 6:25PM
543004DeckConcordiaUnavailable     Oct 22 2020 6:25PM
560000AtmosphericEdson 37951320NOct 22 2020 6:25PM
560000RoadwayEdson45     Oct 22 2020 6:25PM
560000RoadwayEdson45     Oct 22 2020 6:25PM
560001AtmosphericOakley 41861317NNWOct 22 2020 6:25PM
560001ApproachOakley48     Oct 22 2020 6:25PM
560001DeckOakley46     Oct 22 2020 6:25PM
560002AtmosphericAtwood 3989614NNWOct 22 2020 6:25PM
560002ApproachAtwoodUnavailable     Oct 22 2020 6:25PM
560002DeckAtwoodUnavailable     Oct 22 2020 6:25PM
560003AtmosphericJennings 4183917NOct 22 2020 6:25PM
560003ApproachJennings46     Oct 22 2020 6:25PM
560003DeckJennings45     Oct 22 2020 6:25PM
560003DeckJennings45     Oct 22 2020 6:25PM
560004AtmosphericWakeeney 43811122NOct 22 2020 6:25PM
560004ApproachWakeeneyUnavailable     Oct 22 2020 6:25PM
560004DeckWakeeney48     Oct 22 2020 6:25PM
560005AtmosphericWalker 43821218NNWOct 22 2020 6:25PM
560005ApproachWalker52     Oct 22 2020 6:25PM
560005DeckWalker50     Oct 22 2020 6:25PM
560006AtmosphericBow Creek(Stockton) 41721117NOct 22 2020 6:25PM
560006ApproachBow Creek(Stockton)48     Oct 22 2020 6:25PM
560006DeckBow Creek(Stockton)46     Oct 22 2020 6:25PM
560007AtmosphericLebanon 36761216NNWOct 22 2020 6:25PM
560007ApproachLebanonUnavailable     Oct 22 2020 6:25PM
560007DeckLebanon45     Oct 22 2020 6:25PM
560008AtmosphericWallace 4181612NNWOct 22 2020 6:25PM
560008ApproachWallaceUnavailable     Oct 22 2020 6:25PM
560008DeckWallace54     Oct 22 2020 6:25PM
572000AtmosphericGreat Bend 57691218NOct 22 2020 6:25PM
572000ApproachGreat BendUnavailable     Oct 22 2020 6:25PM
572000DeckGreat Bend59     Oct 22 2020 6:25PM
572001AtmosphericPratt 721949NNEOct 22 2020 6:25PM
572001ApproachPratt68     Oct 22 2020 6:25PM
572001DeckPratt68     Oct 22 2020 6:25PM
572002AtmosphericAnthony 825136SOct 22 2020 6:25PM
572002ApproachAnthony118     Oct 22 2020 6:25PM
572002DeckAnthony113     Oct 22 2020 6:25PM
573000AtmosphericEureka 8149515SOct 22 2020 6:25PM
573000DeckEureka84     Oct 22 2020 6:25PM
573000DepartureEureka81     Oct 22 2020 6:25PM
573001AtmosphericGarnett 795659SOct 22 2020 6:25PM
573001ApproachGarnettUnavailable     Oct 22 2020 6:25PM
573001DeckGarnettUnavailable     Oct 22 2020 6:25PM
573003AtmosphericChetopa 795749SEOct 22 2020 6:25PM
573003DeckChetopa81     Oct 22 2020 6:25PM
573003DeckChetopa81     Oct 22 2020 6:25PM
573003DepartureChetopaUnavailable     Oct 22 2020 6:25PM
573004AtmosphericChanute 7958616SOct 22 2020 6:25PM
573004ApproachChanute81     Oct 22 2020 6:25PM
573004DeckChanute82     Oct 22 2020 6:25PM